Location: Krasnoyarskiy Pitomnik
(51.1333°N, 71.6167°E)
Time: 06:09:58
(UTC+00:00)

Altair - Pass Details

Date: 19 April 2024
Orbit: 1501 x 1682 km, 47.2° (Epoch: 12 May)

Event Time Altitude Azimuth Distance (km) Brightness Sun altitude
Rises 18:11:33 0° 274° (W) 4,870 10.4 -25.9°
Reaches altitude 10° 18:14:45 10° 272° (W) 3,860 9.8 -26.1°
Maximum altitude 18:24:25 66° 193° (SSW) 1,700 7.4 -26.5°
Enters shadow 18:29:04 34° 124° (ESE) 2,370 8.1 -26.6°
